Regional Weather Roundup
Issued by NWS Green Bay, WI

Home | Current Version | Previous Version | Graphics & Text | Print | Product List | Glossary Off
Versions: 1 2 3 4 5 6 7 8 9 10 11 12 13 14 15 16 17 18 19 20 21 22 23 24 25 26 27 28 29 30 31 32 33 34 35 36 37 38 39 40 41 42 43 44 45 46 47 48 49 50

000
ASUS43 KGRB 280111
RWRGRB

NORTH-CENTRAL AND NORTHEAST WISCONSIN REGIONAL WEATHER ROUNDUP
NATIONAL WEATHER SERVICE GREEN BAY WI
800 PM CDT THU APR 27 2017

WIZ005-009-010>012-018-019-280200-
NORTH CENTRAL WISCONSIN

CITY           SKY/WX    TMP DP  RH WIND       PRES   REMARKS
IRONWOOD       LGT SNOW  27  24  89 W12       29.59R FOG
MANITOWISH WTR CLOUDY    26  26 100 W9G17     29.58R
ARBOR VITAE    CLOUDY    29  26  88 W9        29.58R
EAGLE RIVER    CLOUDY    28  23  81 W10       29.57R
LAND O LAKES   CLOUDY    28  25  88 W9        29.57R
RHINELANDER    MIX PCPN  30  26  85 W14       29.59R
PHILLIPS       CLOUDY    28  25  91 W6        29.60R
ANTIGO         CLOUDY    30  28  92 W14G20    29.61R
TOMAHAWK       CLOUDY    29  25  86 W6        29.61R
MERRILL        CLOUDY    31  28  88 W7        29.62R
$$

WIZ013-073-280200-
NORTHEAST WISCONSIN

CITY           SKY/WX    TMP DP  RH WIND       PRES   REMARKS
IRON MOUNTAIN  CLOUDY    33  27  78 W8        29.56R
MARINETTE      CLOUDY    37  32  82 W5        29.63R
OCONTO         CLOUDY    38  32  78 W8        29.63R
$$

WIZ017-030-035>037-045-280200-
CENTRAL WISCONSIN

CITY           SKY/WX    TMP DP  RH WIND       PRES   REMARKS
MEDFORD        CLOUDY    30  26  86 W8        29.63R
WAUSAU         CLOUDY    32  28  85 W13       29.63R
MOSINEE        CLOUDY    32  30  93 W12       29.65R
MARSHFIELD     CLOUDY    33  28  81 W9        29.64R
WISC RAPIDS    LGT RAIN  35  33  92 NW8       29.67R
STEVENS POINT  CLOUDY    33  30  87 W9        29.66R
WAUPACA        CLOUDY    40  35  82 SW9       29.66R
SHAWANO        CLOUDY    38  32  78 W7        29.64R
CLINTONVILLE   CLOUDY    36  32  87 W12       29.64R
WAUTOMA        LGT RAIN  38  36  92 W9        29.68R
$$

WIZ038-039-048-051-280200-
FOX VALLEY

CITY           SKY/WX    TMP DP  RH WIND       PRES   REMARKS
NWS GREEN BAY  CLOUDY    41  35  79 W14       29.65R
APPLETON       CLOUDY    39  32  75 W8        29.64R
OSHKOSH        LGT RAIN  40  36  86 W5G17     29.66R
FOND DU LAC    LGT RAIN  41  36  82 W7        29.67R
$$

WIZ022-050-052-280200-
EAST CENTRAL WISCONSIN

CITY           SKY/WX    TMP DP  RH WIND       PRES   REMARKS
EPHRAIM        CLOUDY    37  33  89 SW9       29.62R
WASHINGTON ISL CLOUDY    36  31  83 SW16      29.62R
STURGEON BAY   CLOUDY    39  34  82 SW9       29.64R
MANITOWOC      CLOUDY    42  35  76 SW8       29.67R
SHEBOYGAN      LGT RAIN  41  38  89 W6        29.67R
$$

LMZ563-521-522-541>543-280200-
LAKESHORE

STATION/POSITION TIME  TEMP    WIND        PRES    VSBY  WAVE
                       AIR SEA DIR/SP/G                  HT/PER
                 (UTC) (F)     (DEG/KT/KT) (MB)    (MI)  (FT/S)
SHEBOYGAN LKSHOR 0000   42     210/  6/  8 1004.2R
KEWAUNEE LKSHORE 0042   42     250/  9/ 12 1003.7R
NORTHPORT PIER   0040   37      CALM  /  7 1003.4R
N MID LAKE BUOY  2350   36 37  240/ 14/ 17 1003.0          4/ 6
CHAMBERS ISLAND  0040   38     210/  6/ 11 1002.7R
MENOMINEE LKSHOR 0042   39     250/  7/ 11 1002.4R
$$



USA.gov is the U.S. government's official web portal to all federal, state and local government web resources and services.